Location: ?????? ??????
(44.3742°N, 135.2221°E)
Time: 03:10:30
(UTC+00:00)

Landsat 5 - Pass Details

Date: 19 May 2025
Orbit: 510 x 610 km, 98.1° (Epoch: 14 June)

Event Time Altitude Azimuth Distance (km) Brightness Sun altitude
Rises 13:54:14 0° 15° (NNE) 2,818 7.9 -24.2°
Reaches altitude 10° 13:56:23 10° 17° (NNE) 1,927 6.8 -24.3°
Enters shadow 14:00:08 66° 55° (NE) 659 3.6 -24.5°
